Location: Lahitte
(43.6596°N, 0.6805°E)
Time: 21:12:34
(UTC+00:00)

Cosmos 2219 Rocket - Pass Details

Date: 15 May 2026
Orbit: 826 x 846 km, 71.0° (Epoch: 8 June)

Event Time Altitude Azimuth Distance (km) Brightness Sun altitude
Rises 21:58:38 0° 335° (NNW) 3,405 6.9 -22.0°
Reaches altitude 10° 22:01:06 10° 337° (NNW) 2,469 5.8 -22.2°
Maximum altitude 22:06:47 81° 65° (ENE) 860 2.1 -22.7°
Enters shadow 22:08:13 52° 143° (SE) 1,040 2.2 -22.8°
